Вернуться в каталог

STARLINK-6283

АктивенСвязьVLEO
NORAD 56406·PAYLOAD·🇺🇸 United States

Запущен May 4, 2023 с Cape Canaveral Space Force Station

Loading…

Ближайшие Пролёты (ближайшие 24 часа)

TLE

СвежийSource: CelesTrak SupGP

Эпоха: Sep 15, 2026, 02:21 UTC

1 56406C 23061AJ  26258.09840278 -.00022716  00000+0 -82301-3 0  2588
2 56406  43.0009 197.7432 0000459 229.4872 273.7780 15.27581685    17

Отслеживайте STARLINK-6283 в реальном времени с AllMySat

Download on the App Store